Location: *
(46.1833°N, 22.7667°E)
Time: 02:34:38
(UTC+00:00)

ERBS - Pass Details

Date: 17 September 2019
Orbit: 417 x 425 km, 57.0° (Epoch: 20 October)

Event Time Altitude Azimuth Distance (km) Brightness Sun altitude
Rises 18:25:55 0° 312° (NW) 2,395 7.5 -19.0°
Reaches altitude 10° 18:28:23 10° 330° (NNW) 1,527 5.9 -19.4°
Maximum altitude 18:31:02 21° 20° (NNE) 1,036 4.3 -19.8°
Enters shadow 18:31:23 20° 29° (NNE) 1,046 4.2 -19.8°
